Flag for Czech Republic Weather past 2 weeks in Prague, Czech Republic

55 °F


Feels Like: 54 °F
Forecast: 55 / 59 °F
Wind: 7 mph from East

Location: Prague Ruzyne Airport

Current Time: Oct 7, 2015 at 6:39:13 AM

Latest Report: Oct 7, 2015 at 6:00 AM

Visibility: 2 mi

Pressure: 29.83 "Hg

Humidity: 94%

Dew point: 54 °F

Location of PragueLocation

Historic Weather in Prague — Graph


Prague temperature yesterday

Maximum temperature yesterday: 64 °F (at 4:00 PM)
Minimum temperature yesterday: 48 °F (at 4:00 AM)
Average temperature yesterday: 55 °F

Past Weeks' High & Low Weather Summary

High66 °F (Sep 22, 2:30 PM)100% (Oct 5, 8:00 AM)30.57 "Hg (Oct 5, 8:00 AM)
Low34 °F (Oct 1, 6:00 AM)34% (Sep 28, 4:00 PM)29.68 "Hg (Sep 22, 6:00 PM)
Average53 °F70%30.18 "Hg
* Reported Sep 22 5:00 AM — Oct 7 5:30 AM, Prague, Weather by CustomWeather, © 2015

Note: Actual official high and low records may vary slightly from our data, if they occured in-between our weather recording intervals... More about our weather records


Prague weather history for previous 24 hours

Time TempWeatherWind HumidityBarometerVisibility
5:30 AM
Wed, Oct 7
55 °FLight rain. Fog.6 mph94%29.83 "Hg2 mi
5:00 AM55 °FLight rain. Fog.7 mph94%29.83 "Hg2 mi
4:30 AM55 °FLight rain. Fog.5 mph100%29.83 "Hg2 mi
4:00 AM55 °FLight rain. Fog.6 mph94%29.83 "Hg2 mi
3:30 AM55 °FLight rain. Fog.9 mph94%29.83 "Hg2 mi
3:00 AM55 °FLight rain. Fog.7 mph94%29.83 "Hg3 mi
2:30 AM55 °FLight rain. Mostly cloudy.7 mph94%29.83 "Hg4 mi
2:00 AM55 °FLight rain. Mostly cloudy.5 mph94%29.83 "Hg4 mi
1:30 AM57 °FPassing clouds.5 mph88%29.83 "Hg4 mi
1:00 AM57 °FPassing clouds.5 mph88%29.83 "Hg5 mi
12:30 AM55 °FPassing clouds.6 mph88%29.83 "Hg5 mi
12:00 AM55 °FPassing clouds.5 mph88%29.83 "Hg5 mi
11:30 PM
Tue, Oct 6
55 °FPassing clouds.5 mph88%29.83 "Hg5 mi
11:00 PM55 °FClear.5 mph88%29.83 "Hg6 mi
10:30 PM55 °FClear.5 mph88%29.83 "Hg6 mi
10:00 PM55 °FClear.6 mph88%29.80 "Hg6 mi
9:30 PM55 °FPassing clouds.5 mph88%29.80 "HgN/A
9:00 PM57 °FPassing clouds.7 mph82%29.80 "HgN/A
8:30 PM59 °FPassing clouds.9 mph77%29.80 "HgN/A
8:00 PM59 °FPassing clouds.9 mph77%29.80 "HgN/A
7:30 PM59 °FPartly sunny.9 mph77%29.80 "HgN/A
7:00 PM61 °FPartly sunny.8 mph72%29.80 "HgN/A
6:30 PM63 °FPartly sunny.7 mph68%29.80 "HgN/A
6:00 PM63 °FPartly sunny.8 mph73%29.80 "HgN/A
5:30 PM64 °FOvercast.5 mph68%29.80 "HgN/A
5:00 PM64 °FPartly sunny.8 mph68%29.80 "HgN/A
4:30 PM64 °FPartly sunny.8 mph68%29.80 "HgN/A
4:00 PM64 °FScattered clouds.8 mph68%29.80 "HgN/A
3:30 PM63 °FPassing clouds.8 mph73%29.80 "HgN/A
3:00 PM61 °FPassing clouds.8 mph77%29.80 "Hg5 mi
2:30 PM61 °FScattered clouds.9 mph77%29.83 "Hg5 mi
2:00 PM61 °FScattered clouds.9 mph77%29.83 "Hg4 mi
1:30 PM59 °FPartly sunny.7 mph82%29.83 "Hg4 mi
1:00 PM57 °FFog.8 mph88%29.83 "Hg2 mi
12:30 PM55 °FFog.8 mph94%29.86 "Hg2 mi
12:00 PM57 °FFog.5 mph88%29.86 "Hg2 mi
11:30 AM55 °FFog.7 mph94%29.86 "Hg2 mi
11:00 AM54 °FLight rain. Fog.6 mph94%29.86 "Hg2 mi
10:30 AM54 °FLight rain. Fog.7 mph94%29.86 "Hg2 mi
10:00 AM54 °FLight rain. Fog.3 mph88%29.86 "Hg2 mi
9:30 AM54 °FLight rain. Fog.3 mph88%29.86 "Hg2 mi
9:00 AM52 °FLight rain. Fog.3 mph94%29.86 "Hg3 mi
8:30 AM52 °FFog.6 mph94%29.86 "Hg3 mi
8:00 AM50 °FFog.3 mph94%29.86 "Hg2 mi
7:30 AM48 °FFog.3 mph100%29.86 "Hg2 mi
7:00 AM48 °FFog.1 mph94%29.86 "Hg3 mi
6:30 AM48 °FClear.6 mph100%29.86 "Hg4 mi
6:00 AM50 °FClear.2 mph94%29.86 "Hg4 mi
Weather by CustomWeather, © 2015

See weather overviewHow to use our weather pages